Crew | Aerofun Virtual



 METAR AND TAF INFORMATION
METAR FOR CYBQ
ADDS - METARS form results

(2153 UTC 16 February 2020)
Data provider http://aviationweather.gov/metar/data/
 
METAR text: CYBQ 162100Z AUTO 28009KT 260V330 9SM CLR M23/M29 A2982 RMK SLP143
Conditions at: CYBQ (TADOULE LAKE , MB, CA) observed 2100 UTC 16 February 2020
Temperature: -23.0°C (-9°F)
Dewpoint: -29.0°C (-20°F) [RH = 58%]
Pressure (altimeter): 29.82 inches Hg (1009.9 mb)
[Sea-level pressure: 1014.3 mb]
Winds: from the W (280 degrees) at 10 MPH (9 knots; 4.6 m/s)
Visibility: 9 miles (14 km)
Ceiling: at least 12,000 feet AGL
Clouds: sky clear below 12,000 feet AGL
Weather: no significant weather observed at this time

 AIRPORT MAP

 RUNWAY INFORMATION
Runway 06 Runway length 3200 ft Runway width 100 ft
Runway elevation 0 ft Runway displaced threshold 0 ft Runway heading 0
Runway 24 Runway length 3200 ft Runway width 100 ft
Runway elevation 0 ft Runway displaced threshold 0 ft Runway heading 0
Runway 07 Runway length 0 ft Runway width 0 ft
Runway elevation 923 ft Runway displaced threshold 0 ft Runway heading 0
Runway 25 Runway length 0 ft Runway width 0 ft
Runway elevation 872 ft Runway displaced threshold 0 ft Runway heading 0

 AIRPORT FREQUENCIES

 AIRPORT NEAR NAVIGATION AIDS
Type NDB Name Tadoule Lake Frequency 389 KHZ